New Iberia, LA

10:14 AM CDT on July 20, 2017 (GMT -0500)
Acadiana Regional

Weather History for KARA - February, 2014

Change the Weather History Date:

Wednesday, February 26, 2014

  Actual Average Record
Temperature  
Mean Temperature 50 °F 58 °F  
Max Temperature 60 °F 68 °F 82 °F (1948)
Min Temperature 39 °F 48 °F 27 °F (1974)
Degree Days  
Heating Degree Days 15 8  
Month to date heating degree days 283 264  
Since 1 July heating degree days 1489 1201  
Cooling Degree Days 0 1  
Month to date cooling degree days 18 22  
Year to date cooling degree days 18 34  
Moisture  
Dew Point 43 °F    
Average Humidity 75    
Maximum Humidity 93    
Minimum Humidity 57    
Precipitation  
Precipitation 1.08 in 0.14 in 1.08 in (2014)
Month to date precipitation 5.99 3.89  
Year to date precipitation 8.34 9.11  
Sea Level Pressure  
Sea Level Pressure 30.00 in    
Wind  
Wind Speed 16 mph (North)    
Max Wind Speed 26 mph    
Max Gust Speed 35 mph    
Visibility 7 miles    
Events Rain , Thunderstorm    
T = Trace of Precipitation, MM = Missing Value Source: NWS Daily Summary

Daily Weather History Graph

Daily Weather History Graph

Search for Another Location

Airport or City:

Trip Planner

Search our weather history database for the weather conditions in past years. The results will help you decide how hot, cold, wet, or windy it might be!

Date:

Astronomy

Feb. 26, 2014 Rise Set
Actual Time 6:36 AM CST 6:04 PM CST
Civil Twilight 6:12 AM CST 6:28 PM CST
Nautical Twilight 5:44 AM CST 6:56 PM CST
Astronomical Twilight 5:17 AM CST 7:24 PM CST
Moon 4:13 AM CST (2/26) 3:27 PM CST (2/26)
Length of Visible Light 12h 16m
Length of Day
11h 27m
Waning Crescent, 10% of the Moon is Illuminated
Feb 26
Waning Crescent
Mar 1
New
Mar 8
First Quarter
Mar 16
Full
Mar 23
Last Quarter

Hourly Weather History & Observations

Time (CST) Temp. Windchill Dew Point Humidity Pressure Visibility Wind Dir Wind Speed Gust Speed Precip Events Conditions
12:25 AM 60.1 °F - 57.0 °F 90% 29.92 in 4.0 mi North 9.2 mph - 0.01 in Rain Rain
12:53 AM 57.9 °F - 55.9 °F 93% 29.92 in 4.0 mi NNE 8.1 mph - 0.05 in Rain Rain
12:59 AM 57.9 °F - 55.9 °F 93% 29.92 in 4.0 mi NNE 5.8 mph - 0.02 in Rain , Thunderstorm Rain
1:26 AM 57.0 °F - 55.9 °F 96% 29.91 in 4.0 mi NNE 8.1 mph - 0.29 in Rain Rain
1:50 AM 57.2 °F - 55.4 °F 94% 29.92 in 4.0 mi NNW 5.8 mph - 0.38 in Rain , Thunderstorm Thunderstorms and Rain
1:53 AM 57.0 °F - 55.9 °F 96% 29.91 in 4.0 mi NNW 5.8 mph - 0.38 in Rain , Thunderstorm Thunderstorms and Rain
2:05 AM 57.0 °F - 55.0 °F 93% 29.90 in 4.0 mi NNE 9.2 mph - N/A Rain , Thunderstorm Rain
2:16 AM 57.0 °F - 55.0 °F 93% 29.91 in 4.0 mi NNE 10.4 mph - N/A Rain Rain
2:53 AM 57.0 °F - 54.0 °F 89% 29.92 in 4.0 mi North 10.4 mph - N/A Rain Rain
3:44 AM 55.0 °F - 52.0 °F 89% 29.90 in 4.0 mi North 12.7 mph - N/A Rain Rain
3:53 AM 55.0 °F - 52.0 °F 89% 29.90 in 4.0 mi NNE 12.7 mph - N/A Rain Rain
4:12 AM 55.0 °F - 52.0 °F 89% 29.90 in 4.0 mi NNE 16.1 mph 20.7 mph 0.06 in Rain Rain
4:53 AM 52.0 °F - 48.9 °F 89% 29.93 in 4.0 mi North 25.3 mph 33.4 mph 0.13 in Rain Rain
5:53 AM 48.9 °F - 46.0 °F 90% 29.95 in 4.0 mi NNE 18.4 mph 27.6 mph 0.10 in Rain Rain
6:53 AM 46.9 °F - 44.1 °F 90% 29.99 in 3.0 mi North 21.9 mph 28.8 mph 0.12 in Rain Rain
7:25 AM 46.0 °F 38.3 °F 43.0 °F 89% 30.00 in 7.0 mi North 20.7 mph 29.9 mph 0.02 in Rain Rain
7:43 AM 46.0 °F 38.0 °F 43.0 °F 89% 30.01 in 7.0 mi North 21.9 mph - 0.02 in Rain Rain
7:53 AM 46.0 °F 38.8 °F 43.0 °F 89% 30.02 in 7.0 mi North 18.4 mph - 0.02 in Rain Rain
8:53 AM 46.0 °F 38.0 °F 42.1 °F 86% 30.02 in 7.0 mi NNE 21.9 mph 32.2 mph 0.03 in Rain Rain
9:53 AM 46.0 °F 38.0 °F 42.1 °F 86% 30.05 in 7.0 mi NNE 21.9 mph 32.2 mph 0.00 in Rain Rain
10:53 AM 44.1 °F - 41.0 °F 89% 30.08 in 7.0 mi North - - 0.00 in Rain Rain
11:53 AM 46.0 °F 39.6 °F 41.0 °F 83% 30.06 in 7.0 mi NNE 15.0 mph - 0.00 in   Overcast
12:39 PM 48.9 °F - 42.1 °F 77% 30.04 in 7.0 mi NNE 17.3 mph - N/A   Overcast
12:53 PM 48.9 °F - 42.1 °F 77% 30.02 in 7.0 mi North 16.1 mph 24.2 mph N/A   Overcast
1:53 PM 46.9 °F - 39.9 °F 77% 30.02 in 7.0 mi North 17.3 mph - N/A   Overcast
2:25 PM 46.9 °F - 37.9 °F 71% 30.02 in 10.0 mi North 21.9 mph 27.6 mph N/A   Scattered Clouds
2:53 PM 46.9 °F - 37.0 °F 68% 30.00 in 10.0 mi North 21.9 mph - N/A   Clear
3:53 PM 46.0 °F 39.6 °F 34.0 °F 63% 30.01 in 10.0 mi North 15.0 mph - N/A   Scattered Clouds
4:53 PM 44.1 °F 36.8 °F 30.9 °F 60% 30.04 in 10.0 mi North 16.1 mph - N/A   Overcast
5:53 PM 43.0 °F 35.1 °F 30.0 °F 60% 30.06 in 10.0 mi North 17.3 mph - 0.00 in Rain Light Rain
6:53 PM 42.1 °F 34.9 °F 28.9 °F 60% 30.06 in 10.0 mi North 13.8 mph - 0.00 in   Overcast
7:53 PM 42.1 °F 34.2 °F 28.9 °F 60% 30.09 in 10.0 mi North 16.1 mph - N/A   Clear
8:53 PM 41.0 °F 33.1 °F 28.9 °F 62% 30.11 in 10.0 mi North 15.0 mph - N/A   Clear
9:53 PM 39.9 °F 32.9 °F 30.0 °F 68% 30.13 in 10.0 mi North 11.5 mph - N/A   Clear
10:53 PM 39.9 °F 31.4 °F 28.0 °F 63% 30.12 in 10.0 mi North 16.1 mph - N/A   Clear
11:53 PM 39.0 °F 31.8 °F 28.9 °F 67% 30.11 in 10.0 mi North 11.5 mph - N/A   Clear